• Em Portugal
  • Lista de países
  • Para 7 dias
  • Temperatura da água
  • Mapas de satélite
  • Mapa do tempo
  • Widgets de tempo
  • user-avatar
    Iniciar Sessão

    Previsão horária em Myitkyina

    Hoje, 18 Fevereiro, Domingo

    Tempo Temperatura Precipitação Vento Pressão Humidade
    00:00 +16°C° 0 mm 1 m/s 741 mmHg 39%
    01:00 +15°C° 0 mm 1 m/s 741 mmHg 39%
    02:00 +15°C° 0 mm 1 m/s 741 mmHg 40%
    03:00 +15°C° 0 mm 1 m/s 741 mmHg 40%
    04:00 +15°C° 0 mm 1 m/s 741 mmHg 40%
    05:00 +14°C° 0 mm 1 m/s 741 mmHg 40%
    06:00 +15°C° 0 mm 1 m/s 742 mmHg 45%
    07:00 +19°C° 0 mm 1 m/s 742 mmHg 39%
    08:00 +22°C° 0 mm 1 m/s 742 mmHg 33%
    09:00 +24°C° 0 mm 0 m/s 742 mmHg 26%
    10:00 +28°C° 0 mm 1 m/s 742 mmHg 25%
    11:00 +30°C° 0 mm 1 m/s 741 mmHg 23%
    12:00 +32°C° 0 mm 1 m/s 741 mmHg 21%
    13:00 +32°C° 0 mm 1 m/s 740 mmHg 22%
    14:00 +32°C° 0 mm 1 m/s 739 mmHg 22%
    15:00 +32°C° 0 mm 1 m/s 739 mmHg 23%
    16:00 +29°C° 0 mm 1 m/s 739 mmHg 30%
    17:00 +26°C° 0 mm 1 m/s 739 mmHg 36%
    18:00 +23°C° 0 mm 1 m/s 740 mmHg 43%
    19:00 +22°C° 0 mm 1 m/s 740 mmHg 44%
    20:00 +21°C° 0 mm 1 m/s 741 mmHg 45%
    21:00 +20°C° 0 mm 1 m/s 741 mmHg 46%
    22:00 +20°C° 0 mm 1 m/s 741 mmHg 47%
    23:00 +19°C° 0 mm 1 m/s 742 mmHg 49%

    Amanhã, 19 Fevereiro, Segunda-feira

    Tempo Temperatura Precipitação Vento Pressão Humidade
    00:00 +19°C° 0 mm 1 m/s 742 mmHg 50%
    01:00 +18°C° 0 mm 1 m/s 742 mmHg 51%
    02:00 +18°C° 0 mm 1 m/s 742 mmHg 51%
    03:00 +18°C° 0 mm 1 m/s 741 mmHg 52%
    04:00 +16°C° 0 mm 1 m/s 742 mmHg 53%
    05:00 +16°C° 0 mm 1 m/s 742 mmHg 53%
    06:00 +16°C° 0 mm 1 m/s 742 mmHg 54%
    07:00 +20°C° 0 mm 1 m/s 743 mmHg 46%
    08:00 +23°C° 0 mm 1 m/s 743 mmHg 38%
    09:00 +27°C° 0 mm 1 m/s 743 mmHg 31%
    10:00 +29°C° 0 mm 1 m/s 743 mmHg 28%
    11:00 +31°C° 0 mm 1 m/s 742 mmHg 25%
    12:00 +31°C° 0 mm 0 m/s 741 mmHg 21%
    13:00 +33°C° 0 mm 1 m/s 741 mmHg 22%
    14:00 +33°C° 0 mm 1 m/s 740 mmHg 22%
    15:00 +32°C° 0 mm 1 m/s 739 mmHg 22%
    16:00 +29°C° 0 mm 1 m/s 739 mmHg 29%
    17:00 +26°C° 0 mm 1 m/s 740 mmHg 35%
    18:00 +23°C° 0 mm 1 m/s 740 mmHg 42%
    19:00 +22°C° 0 mm 1 m/s 740 mmHg 43%
    20:00 +21°C° 0 mm 1 m/s 741 mmHg 44%
    21:00 +20°C° 0 mm 1 m/s 742 mmHg 45%
    22:00 +20°C° 0 mm 1 m/s 742 mmHg 46%
    23:00 +19°C° 0 mm 1 m/s 742 mmHg 47%

    Depois de amanhã, 20 Fevereiro, Terça-feira

    Tempo Temperatura Precipitação Vento Pressão Humidade
    00:00 +19°C° 0 mm 1 m/s 742 mmHg 48%
    01:00 +19°C° 0 mm 1 m/s 742 mmHg 49%
    02:00 +18°C° 0 mm 1 m/s 742 mmHg 50%
    03:00 +18°C° 0 mm 1 m/s 742 mmHg 51%
    04:00 +16°C° 0 mm 1 m/s 742 mmHg 52%
    05:00 +16°C° 0 mm 1 m/s 742 mmHg 53%
    06:00 +16°C° 0 mm 1 m/s 742 mmHg 54%
    07:00 +20°C° 0 mm 1 m/s 743 mmHg 46%
    08:00 +24°C° 0 mm 1 m/s 743 mmHg 38%
    09:00 +25°C° 0 mm 0 m/s 744 mmHg 31%
    10:00 +27°C° 0 mm 0 m/s 743 mmHg 27%
    11:00 +29°C° 0 mm 0 m/s 742 mmHg 24%
    12:00 +31°C° 0 mm 0 m/s 741 mmHg 21%
    13:00 +31°C° 0 mm 0 m/s 741 mmHg 21%
    14:00 +31°C° 0 mm 0 m/s 740 mmHg 21%
    15:00 +30°C° 0 mm 0 m/s 739 mmHg 21%
    16:00 +27°C° 0 mm 0 m/s 739 mmHg 28%
    17:00 +24°C° 0 mm 0 m/s 740 mmHg 34%
    18:00 +21°C° 0 mm 0 m/s 740 mmHg 41%
    19:00 +22°C° 0 mm 1 m/s 740 mmHg 42%
    20:00 +21°C° 0 mm 1 m/s 741 mmHg 43%
    21:00 +20°C° 0 mm 1 m/s 741 mmHg 44%
    22:00 +20°C° 0 mm 1 m/s 741 mmHg 45%
    23:00 +19°C° 0 mm 1 m/s 741 mmHg 45%

    21 Fevereiro, Quarta-feira

    Tempo Temperatura Precipitação Vento Pressão Humidade
    00:00 +19°C° 0 mm 1 m/s 741 mmHg 46%
    01:00 +18°C° 0 mm 1 m/s 741 mmHg 47%
    02:00 +18°C° 0 mm 1 m/s 740 mmHg 48%
    03:00 +16°C° 0 mm 1 m/s 740 mmHg 49%
    04:00 +16°C° 0 mm 1 m/s 740 mmHg 49%
    05:00 +16°C° 0 mm 1 m/s 741 mmHg 49%
    06:00 +16°C° 0 mm 1 m/s 741 mmHg 49%
    07:00 +20°C° 0 mm 1 m/s 741 mmHg 42%
    08:00 +23°C° 0 mm 1 m/s 742 mmHg 35%
    09:00 +25°C° 0 mm 0 m/s 742 mmHg 28%
    10:00 +27°C° 0 mm 0 m/s 742 mmHg 25%
    11:00 +31°C° 0 mm 1 m/s 741 mmHg 23%
    12:00 +33°C° 0 mm 1 m/s 740 mmHg 20%
    13:00 +33°C° 0 mm 1 m/s 739 mmHg 20%
    14:00 +33°C° 0 mm 1 m/s 738 mmHg 21%
    15:00 +32°C° 0 mm 1 m/s 737 mmHg 21%
    16:00 +29°C° 0 mm 1 m/s 738 mmHg 27%
    17:00 +26°C° 0 mm 1 m/s 738 mmHg 34%
    18:00 +23°C° 0 mm 1 m/s 738 mmHg 40%
    19:00 +22°C° 0 mm 1 m/s 739 mmHg 41%
    20:00 +21°C° 0 mm 1 m/s 740 mmHg 42%
    21:00 +20°C° 0 mm 1 m/s 740 mmHg 43%
    22:00 +20°C° 0 mm 1 m/s 740 mmHg 44%
    23:00 +19°C° 0 mm 1 m/s 740 mmHg 45%

    22 Fevereiro, Quinta-feira

    Tempo Temperatura Precipitação Vento Pressão Humidade
    00:00 +19°C° 0 mm 1 m/s 740 mmHg 46%
    01:00 +19°C° 0 mm 1 m/s 740 mmHg 47%
    02:00 +18°C° 0 mm 1 m/s 740 mmHg 47%
    03:00 +18°C° 0 mm 1 m/s 740 mmHg 48%
    04:00 +16°C° 0 mm 1 m/s 740 mmHg 48%
    05:00 +16°C° 0 mm 1 m/s 741 mmHg 49%
    06:00 +16°C° 0 mm 1 m/s 741 mmHg 49%
    07:00 +20°C° 0 mm 1 m/s 742 mmHg 42%
    08:00 +23°C° 0 mm 1 m/s 742 mmHg 36%
    09:00 +27°C° 0 mm 1 m/s 742 mmHg 29%
    10:00 +29°C° 0 mm 1 m/s 742 mmHg 26%
    11:00 +31°C° 0 mm 1 m/s 741 mmHg 23%
    12:00 +31°C° 0 mm 0 m/s 740 mmHg 20%
    13:00 +33°C° 0 mm 1 m/s 740 mmHg 20%
    14:00 +33°C° 0 mm 1 m/s 739 mmHg 20%
    15:00 +33°C° 0 mm 1 m/s 738 mmHg 20%
    16:00 +30°C° 0 mm 1 m/s 739 mmHg 26%
    17:00 +26°C° 0 mm 1 m/s 739 mmHg 32%
    18:00 +23°C° 0 mm 1 m/s 740 mmHg 38%
    19:00 +22°C° 0 mm 1 m/s 740 mmHg 39%
    20:00 +21°C° 0 mm 1 m/s 741 mmHg 40%
    21:00 +20°C° 0 mm 1 m/s 742 mmHg 41%
    22:00 +20°C° 0 mm 1 m/s 741 mmHg 42%
    23:00 +20°C° 0 mm 1 m/s 741 mmHg 42%

    23 Fevereiro, Sexta-feira

    Tempo Temperatura Precipitação Vento Pressão Humidade
    00:00 +19°C° 0 mm 1 m/s 741 mmHg 43%
    01:00 +19°C° 0 mm 1 m/s 741 mmHg 44%
    02:00 +18°C° 0 mm 1 m/s 741 mmHg 44%
    03:00 +18°C° 0 mm 1 m/s 741 mmHg 45%
    04:00 +18°C° 0 mm 1 m/s 741 mmHg 46%
    05:00 +18°C° 0 mm 1 m/s 742 mmHg 46%
    06:00 +16°C° 0 mm 1 m/s 742 mmHg 46%
    07:00 +21°C° 0 mm 1 m/s 742 mmHg 40%
    08:00 +24°C° 0 mm 1 m/s 743 mmHg 33%
    09:00 +28°C° 0 mm 1 m/s 743 mmHg 26%
    10:00 +30°C° 0 mm 1 m/s 742 mmHg 24%
    11:00 +32°C° 0 mm 1 m/s 742 mmHg 22%
    12:00 +34°C° 0 mm 1 m/s 741 mmHg 19%
    13:00 +34°C° 0 mm 1 m/s 740 mmHg 20%
    14:00 +34°C° 0 mm 1 m/s 740 mmHg 20%
    15:00 +33°C° 0 mm 1 m/s 739 mmHg 21%
    16:00 +30°C° 0 mm 1 m/s 739 mmHg 27%
    17:00 +27°C° 0 mm 1 m/s 739 mmHg 33%
    18:00 +24°C° 0 mm 1 m/s 740 mmHg 39%
    19:00 +23°C° 0 mm 1 m/s 740 mmHg 40%
    20:00 +22°C° 0 mm 1 m/s 741 mmHg 42%
    21:00 +21°C° 0 mm 1 m/s 742 mmHg 43%
    22:00 +21°C° 0 mm 1 m/s 742 mmHg 44%
    23:00 +20°C° 0 mm 1 m/s 742 mmHg 45%
    Mostrar mais